Powrót do katalogu

STARLINK-37472

AktywnyŁącznośćVLEO
NORAD 69172·PAYLOAD·🇺🇸 United States

Wystrzelony May 21, 2026 z Cape Canaveral Space Force Station

Loading…

Następne Przeloty (najbliższe 24 godziny)

TLE

ŚwieżeSource: CelesTrak SupGP

Epoka: Sep 15, 2026, 04:31 UTC

1 69172C 26111AA  26258.18868056 -.00026952  00000+0 -79631-3 0  2583
2 69172  53.1564  90.2552 0001218  89.9423  50.2990 15.34403664    13

Śledź STARLINK-37472 w czasie rzeczywistym z AllMySat

Download on the App Store